STARLINK-1036, 44741

Orbit data source: Space-Track

STARLINK-1036, 44741 is a payload satellite owned by SpaceX/Seattle (US) in LEO that was launched on Mon, 11 Nov 2019 UTC via an FALCON 9 launch vehicle from the Air Force Eastern Test Range (AFETR). Payload-class satellites include a variety of spacecraft equipped with specific instruments for various scientific and technological missions. These include communications satellites like Starlink; space stations such as the ISS; scientific satellites like the Hubble; Earth observation satellites from companies like Planet Labs, Umbra, and HawkEye 360; GPS; miniature CubeSats for education and research; and military/defense satellites.

Loading next visibility...
Identifier
44741, 2019-074AE
Orbit
LEO
Last TLE update
23 hours ago
Origin
Manufacturer
SpaceX/Seattle
Mission
Operational Commercial Communications
Bus & Motor
STARLINK, Unknown motor
Mass
260 kg wet, ~248 kg dry
Launch date (UTC)
2019-11-11 (5 years ago)
Launch vehicle
FALCON 9
Launch site
Air Force Eastern Test Range (AFETR)
Object type
Payload
Rocket body
Debris
Shape & HBR
Box + 1 Pan, 8.86 m
Radar Cross Section
13.562 m², Large (>1 m²)

Expand to show TLE details & history

TLE from 23 hours ago
0 STARLINK-1036
1 44741U 19074AE  25128.31935536 -.00000590  00000-0 -20705-4 0  9998
2 44741  53.0541 137.4761 0001314  93.1564 266.9575 15.06400406302445
Epoch: 2025-05-08T07:39Z
Definitive object data (Epoch: 2025-05-08T07:39:52.303Z)
Latitude
-0.00003°
Longitude
156.11659°
Altitude
548.138 km
Speed
7.589 km/s
True Right ascension
09h 09m 54s
True Declination
0° 00' 00"
Sunlit
Object was in daylight at TLE epoch
Visualization TLE readout
Latitude
-17.62675°
Longitude
-14.47359°
Altitude
552.253 km
Speed
7.586 km/s
Apparent Right ascension
23h 56m 15s
Apparent Declination
-34° 22' 34"
Sunlit
Object is in daylight
Visualization observer readout
Local Sidereal Time
14:59:54
Azimuth
96.218° ESE
Elevation
-53.392°
Doppler factor
1
Orbital elements
Apogee altitude
548.391 km
Perigee altitude
546.571 km
Semi-major axis
6,925.618 km
Eccentricity
0.0001314
Inclination
53.0541°
RAAN
137.4761°
Arg. of periapsis
93.1564°
True anomaly
266.94246°
Mean anomaly
266.9575°
Eccentric anomaly
266.94998°
Mean motion
3.76578 °/min
BSTAR
-0.000020705
Orbital period
95.6 mins
Loading maneuver chart data...
Loading SW <> Apogee altitude chart data...

STARLINK-1036 Visibility forecast

Observer location: undefined°, undefined°

Span
Click to sort rows by Start time (UTC) header in descending order
Start Az.
Max El. time (UTC)
Max El. Az.
Max El.
End time (UTC)
End Az.
4 mins2025-05-09 07:59:00.393Z344.858° N2025-05-09 08:01:00.393Z18.955° NNE16.54°2025-05-09 08:03:00.393Z51.771° ENE
6 mins2025-05-09 09:39:00.393Z325.932° NNW2025-05-09 09:41:00.393Z29.055° NE40.212°2025-05-09 09:45:00.393Z115.877° SE
4 mins2025-05-09 11:19:00.393Z256.883° W2025-05-09 11:20:00.393Z238.056° WSW18.394°2025-05-09 11:23:00.393Z188.019° SSW
6 mins2025-05-10 02:51:00.393Z221.637° SW2025-05-10 02:53:00.393Z183.982° SSW43.823°2025-05-10 02:57:00.393Z52.818° ENE
5 mins2025-05-10 04:31:00.393Z295.617° NW2025-05-10 04:33:00.393Z333.087° NNW21.073°2025-05-10 04:36:00.393Z25.957° NE
|